Tracking 31027 objects as of 19-Jul-2025
HD Live streaming from Space Station
objects crossing your sky now

SCATHA AKM

Track SCATHA AKM now!


NORAD ID: 29000
Int'l Code: 1979-007C
Perigee: 28,176.5 km
Apogee: 42,678.8 km
Inclination: 10.5 °
Period: 1,417.4 minutes
Semi major axis: 41798 km
RCS: 0.003 m2 (small)
Launch date: January 30, 1979
Source: United States (US)
Launch site: AIR FORCE EASTERN TEST RANGE (AFETR)

Note: This is a ROCKET BODY
Your satellite tracking list
SPACEBEE-134
Track 1 satellite(s)




NASA's NSSDC Master Catalog

Two Line Element Set (TLE):
1 29000U 79007C   25199.58646241 -.00000309  00000-0  00000-0 0  9999
2 29000  10.5130 282.0509 1734773 128.0963 202.8493  1.01592043 44551
Source of the keplerian elements: AFSPC